Location: Famechon
(49.7599°N, 2.0615°E)
Time: 20:38:22
(UTC+00:00)

Cosmos 1741 Rocket - Pass Details

Date: 02 April 2025
Orbit: 758 x 778 km, 74.0° (Epoch: 28 April)

Event Time Altitude Azimuth Distance (km) Brightness Sun altitude
Rises 00:46:45 0° 332° (NNW) 3,239 7.8 -34.2°
Reaches altitude 10° 00:49:11 10° 328° (NNW) 2,312 6.9 -34.1°
Enters shadow 00:50:59 21° 320° (NW) 1,661 6.0 -34.0°
